User: anonymous   Login
Location: Caltech
(34.1382°N, 118.1253°W)
Time: 03:08:19
(UTC-07:00)
Language:

Iridium 62 - Orbit

View from above orbital plane
View from above orbital plane
View from above satellite
View from above satellite

Ground track
Ground track

The orbit data is extracted from the following two-line orbital elements,

1 25285U 98021A   15148.50445673  .00000077  00000-0  20269-4 0  9992
2 25285 086.3975 177.7046 0002245 089.2903 270.8550 14.34216157897429
Epoch (UTC): 28 May 2015 12:06:25
Eccentricity: 0.0002245
inclination: 86.3975°
perigee height: 776 km
apogee height: 779 km
right ascension of ascending node: 177.7046°
argument of perigee: 89.2903°
revolutions per day: 14.34216157
mean anomaly at epoch: 270.8550°
orbit number at epoch: 89742

The dashed part of the orbit path shows where the satellite is in the earth's shadow,  

DLR